Tracking 27097 objects as of 30-Mar-2023
HD Live streaming from Space Station
objects crossing your sky now

SBS 2

Track SBS 2 now!
SBS 2 is classified as:


NORAD ID: 12855
Int'l Code: 1981-096A
Perigee: 35,814.3 km
Apogee: 35,859.2 km
Inclination: 12.1 °
Period: 1,438.3 minutes
Semi major axis: 42207 km
RCS: 7.6855 m2 (large)
Launch date: September 24, 1981
Source: United States (US)
Launch site: AIR FORCE EASTERN TEST RANGE (AFETR)
Your satellite tracking list
Your tracking list is empty




NASA's NSSDC Master Catalog

Two Line Element Set (TLE):
1 12855U 81096A   23088.20483740 -.00000228  00000-0  00000+0 0  9996
2 12855  12.1313 329.8742 0005326 169.6047  40.1284  1.00118527106784
Source of the keplerian elements: AFSPC